SCP
0 0 0 0 0 0 0 0 0 0 0 0 0 0 0 0 0 0 0 0 0 0 0 0 0 0 0 0 0 0 0 0 0 0 0 0 0 0 0 -0 -0 -0 0 0
0 0 0 0 0 0 0 0 0 0 0 0 0 0 0 0 0 0 0 0 0 0 0 0 0 0 0 0 0 0 0 0 0 0 0 0 0 0 0 -0 -0 -0 0 0
0 0 0 0 0 0 0 0 0 0 0 0 0 0 0 0 0 0 0 0 0 0 0 0 0 0 0 0 0 0 0 0 0 0 0 0 0 0 -0 0 0 0 0 0
0 0 0 0 0 0 0 0 0 0 0 0 0 0 0 0 0 0 0 0 0 0 0 0 0 0 0 0 0 0 0 0 0 0 0 0 0 0 -0 0 0 0 -0 -0
0 0 0 0 0 0 0 0 0 0 0 0 0 0 0 0 0 0 0 0 0 0 0 0 0 0 0 0 0 0 0 0 0 0 0 0 0 0 -0 0 0 0 -0 -0
0 0 0 0 0 0 0 0 0 0 0 0 0 0 0 0 0 0 0 0 0 0 0 0 0 0 0 0 0 0 0 0 0 0 0 0 0 0 -0 -0 -0 -0 0 0
0 0 0 0 0 0 0 0 0 0 0 0 0 0 0 0 0 0 0 0 0 0 0 0 0 0 0 0 0 0 0 0 0 0 0 0 0 0 0 0 0 0 0 0
0 0 0 0 0 0 0 0 0 0 0 0 0 0 0 0 0 0 0 0 0 0 0 0 0 0 0 0 0 0 0 0 0 0 0 0 0 0 0 0 0 0 0 0
0 0 0 0 0 0 0 0 0 0 0 0 0 0 0 0 0 0 0 0 0 0 0 0 0 0 0 0 0 0 0 0 0 0 0 0 0 0 0 0 0 0 0 0
0 0 0 0 0 0 0 0 0 0 0 0 0 0 0 0 0 0 0 0 0 0 0 0 0 0 0 0 0 0 0 0 0 0 0 0 0 0 0 0 0 0 0 0
0 0 0 0 0 0 0 0 0 0 0 0 0 0 0 0 0 0 0 0 0 0 0 0 0 0 0 0 0 0 0 0 0 0 0 0 0 0 0 0 0 0 0 0
0 0 0 0 0 0 0 0 0 0 0 0 0 0 0 0 0 0 0 0 0 0 0 0 0 0 0 0 0 0 0 0 0 0 0 0 0 0 0 0 0 0 0 0
0 0 0 0 0 0 0 0 0 0 0 0 0 0 0 0 0 0 0 0 0 0 0 0 0 0 0 0 0 0 0 0 0 0 0 0 0 0 0 0 0 0 0 0
0 0 0 0 0 0 0 0 0 0 0 0 0 0 0 0 0 0 0 0 0 0 0 0 0 0 0 0 0 0 0 0 0 0 0 0 0 0 0 0 0 0 0 0
0 0 0 0 0 0 0 0 0 0 0 0 0 0 0 0 0 0 0 0 0 0 0 0 0 0 0 0 0 0 0 0 0 0 0 0 0 0 0 0 0 0 0 0
0 0 0 0 0 0 0 0 0 0 0 0 0 0 0 0 0 0 0 0 0 0 0 0 0 0 0 0 0 0 0 0 0 0 0 0 0 0 0 0 0 0 0 0
0 0 0 0 0 0 0 0 0 0 0 0 0 0 0 0 0 0 0 0 0 0 0 0 0 0 0 0 0 0 0 0 0 0 0 0 0 0 0 0 0 0 0 0
0 0 0 0 0 0 0 0 0 0 0 0 0 0 0 0 0 0 0 0 0 0 0 0 0 0 0 0 0 0 0 0 0 0 0 0 0 0 0 0 0 0 0 0
0 0 0 0 0 0 0 0 0 0 0 0 0 0 0 0 0 0 0 0 0 0 0 0 0 0 0 0 0 0 0 0 0 0 0 0 0 0 0 0 0 0 0 0
0 0 0 0 0 0 0 0 0 0 0 0 0 0 0 0 0 0 0 0 0 0 0 0 0 0 0 0 0 0 0 0 0 0 0 0 0 0 0 0 0 0 0 0
0 0 0 0 0 0 0 0 0 0 0 0 0 0 0 0 0 0 0 0 0 0 0 0 0 0 0 0 0 0 0 0 0 0 0 0 0 0 0 0 0 0 0 0
0 0 0 0 0 0 0 0 0 0 0 0 0 0 0 0 0 0 0 0 0 0 0 0 0 0 0 0 0 0 0 0 0 0 0 0 0 0 0 0 0 0 0 0
0 0 0 0 0 0 0 0 0 0 0 0 0 0 0 0 0 0 0 0 0 0 0 0 0 0 0 0 0 0 0 0 0 0 0 0 0 0 0 0 0 0 0 0
0 0 0 0 0 0 0 0 0 0 0 0 0 0 0 0 0 0 0 0 0 0 0 0 0 0 1 1 0 0 0 0 0 0 0 0 0 0 0 0 0 0 0 0
0 0 0 0 0 0 0 0 0 0 0 0 0 0 0 0 0 0 0 0 0 0 0 0 0 0 0 1 0 0 0 0 0 0 0 0 0 0 0 0 0 0 0 0
0 0 0 0 0 0 0 0 0 0 0 0 0 0 0 0 0 0 0 0 0 0 0 0 0 0 0 0 0 0 0 0 0 0 0 0 0 0 0 0 0 0 0 0
Wind_Speed
3 5 1 3 4 4 4 3 2 0 1 3 2 2 3 3 4 5 5 5 5 5 3 3 4 4 4 4 4 4 5 4 3 3 3 3 2 2 3 3 4 4 4 4
5 2 2 2 4 5 4 4 2 1 2 2 2 2 2 3 5 6 7 7 7 4 3 4 4 3 4 4 3 4 4 4 3 3 2 2 2 1 1 2 4 5 5 4
3 2 1 4 4 4 2 4 3 3 3 3 2 2 1 2 2 3 5 5 6 7 7 6 5 4 4 4 4 4 4 4 3 3 3 3 3 3 3 3 3 4 4 4
1 1 2 3 2 4 1 2 4 4 3 1 1 1 4 2 3 4 6 6 7 7 6 6 6 5 5 4 3 4 4 4 3 4 4 4 3 2 1 1 1 3 4 5
1 1 2 2 2 4 3 3 5 4 3 1 1 1 5 1 4 7 7 8 8 8 8 7 7 6 5 4 4 4 4 4 3 4 5 5 3 2 1 1 3 3 4 5
1 1 2 3 1 4 5 6 5 5 4 1 2 2 5 4 7 6 7 8 8 8 7 6 5 5 4 4 4 4 5 3 3 4 4 5 5 4 3 2 2 2 2 3
2 1 0 3 4 3 4 5 3 3 3 3 2 2 7 6 6 7 9 9 9 8 8 8 7 6 5 5 4 4 5 4 3 4 4 4 4 4 4 2 2 1 2 2
2 2 2 2 4 5 3 6 5 3 2 3 1 4 7 4 4 5 6 7 8 8 8 8 8 7 6 6 5 5 5 4 4 4 3 3 4 3 2 2 2 2 1 0
5 3 1 1 2 7 5 2 4 5 1 1 4 5 7 1 0 1 4 6 8 9 9 9 8 7 7 7 6 6 6 4 4 4 4 4 3 3 3 2 2 1 1 1
6 3 1 1 4 3 4 7 5 4 2 2 4 4 4 4 3 2 4 7 7 7 8 8 7 7 6 6 5 5 5 5 4 4 4 4 3 3 3 3 3 2 1 2
4 4 0 1 3 5 4 3 4 3 3 3 2 6 5 6 6 6 6 7 8 9 9 8 7 6 6 5 5 5 5 4 4 4 4 4 4 3 3 3 2 2 2 2
4 5 1 3 2 3 5 6 7 4 3 3 2 8 4 5 5 5 6 5 7 7 7 7 7 6 6 6 5 5 5 5 4 4 5 5 4 4 3 3 2 2 3 2
6 6 3 4 4 0 2 3 4 5 4 4 3 7 3 0 2 3 5 5 6 7 7 6 6 7 7 6 6 5 5 5 4 5 5 5 4 4 3 2 2 2 3 3
7 5 6 7 6 4 3 4 5 5 4 4 7 7 6 4 3 3 4 5 6 7 7 7 7 6 6 6 6 6 5 5 5 6 5 5 4 4 3 3 3 2 3 3
5 4 4 4 3 3 4 4 7 7 7 8 7 7 9 6 5 5 5 6 6 7 7 8 8 7 6 6 6 5 5 5 6 6 5 5 4 4 4 3 3 3 3 3
4 4 2 1 1 2 3 5 6 7 5 6 5 8 7 3 3 4 5 8 8 8 8 8 8 8 8 8 7 6 6 6 6 6 5 5 5 4 4 3 3 3 3 2
3 5 4 2 2 1 4 7 7 5 6 7 9 9 3 2 5 7 8 8 9 9 8 9 9 9 8 8 8 8 7 6 6 6 5 5 5 4 4 4 4 3 2 2
7 5 4 2 1 4 8 3 5 5 6 6 6 6 5 6 5 4 6 8 8 8 8 8 8 7 6 6 7 7 6 7 6 6 5 5 5 5 4 4 4 3 2 2
5 7 5 4 2 5 7 3 4 5 5 6 7 5 3 3 3 1 4 7 8 8 8 7 8 7 7 8 8 8 7 6 6 6 6 6 6 6 5 4 4 2 3 2
5 5 6 4 4 6 8 4 3 4 4 4 6 6 5 6 3 5 4 5 5 5 6 6 6 7 8 7 8 9 8 7 7 6 6 5 6 6 6 5 4 2 3 3
3 3 4 5 4 8 7 2 4 4 7 3 5 6 8 7 6 3 4 5 5 6 6 7 8 7 7 8 9 8 7 7 6 5 5 5 5 5 5 4 3 3 3 3
7 6 5 5 4 8 3 4 6 7 3 2 4 5 6 5 3 4 5 6 6 6 6 7 7 6 6 8 9 8 7 6 6 6 6 5 5 5 5 5 4 3 4 4
6 7 7 8 8 5 2 5 4 2 2 3 4 4 6 5 3 4 5 6 6 6 7 6 7 6 5 6 8 8 6 7 7 7 6 5 5 4 4 5 5 4 3 3
3 2 3 3 6 5 4 3 3 3 3 3 3 4 6 6 5 5 5 5 5 5 6 6 7 7 5 5 5 6 6 7 8 7 6 5 5 4 3 3 4 4 3 3
5 5 3 4 5 4 4 3 3 2 1 2 2 3 6 7 6 6 6 6 6 5 5 6 7 6 6 5 4 5 6 8 8 7 5 5 5 5 4 3 2 3 3 4
5 7 7 7 7 5 5 4 2 3 3 4 4 3 4 6 6 6 5 5 6 6 5 6 5 6 5 6 5 5 6 7 8 6 5 4 4 4 3 3 2 1 2 2
Wind_Direction
37 68 135 205 178 156 132 122 112 41 123 113 144 208 220 184 175 184 189 186 182 185 175 149 136 127 120 116 116 119 118 117 116 105 96 85 62 32 25 26 33 35 40 45
45 3 253 147 126 116 114 115 115 71 87 112 151 242 231 193 195 195 192 193 188 173 159 154 138 134 138 143 138 130 134 135 130 121 115 112 109 72 39 14 30 31 35 36
136 245 127 121 129 124 125 153 161 143 80 52 81 334 292 242 197 197 195 188 184 183 179 172 161 156 150 155 161 151 146 135 125 116 102 84 61 43 29 19 15 11 26 37
167 234 127 118 139 138 160 187 146 130 108 355 82 286 281 237 214 212 206 194 190 185 178 173 167 163 167 174 161 143 139 130 128 126 120 120 116 107 50 9 11 16 28 36
236 151 132 144 189 151 157 115 107 108 116 57 21 175 284 227 225 229 215 203 195 185 178 175 174 171 169 160 152 145 130 121 127 130 131 122 112 112 83 55 46 31 24 30
233 231 170 177 114 125 122 84 70 56 71 360 239 178 274 225 211 217 212 204 192 183 176 171 164 154 152 144 140 137 129 124 131 131 130 131 131 124 105 78 61 33 21 21
356 333 231 130 94 77 100 95 50 14 19 261 248 195 250 242 217 210 206 201 188 179 171 167 164 164 162 157 154 147 143 143 142 133 131 136 138 135 133 131 115 84 42 23
156 275 238 168 156 161 153 133 150 180 219 284 291 235 256 257 244 220 198 184 174 174 174 175 176 171 170 168 163 159 158 154 150 145 144 139 136 131 130 135 131 121 104 50
171 236 268 184 143 134 129 144 156 128 150 275 278 283 299 307 311 162 166 167 174 177 177 177 172 170 170 171 174 171 165 155 156 154 143 136 133 129 131 125 113 109 103 84
154 170 243 164 89 51 136 142 110 119 144 269 290 271 249 261 253 202 179 181 183 176 174 172 171 172 171 172 170 163 160 160 157 153 150 140 134 130 128 116 106 99 87 75
137 141 352 115 177 173 127 123 120 124 154 163 269 275 230 215 214 204 203 193 183 178 178 175 172 168 163 159 158 157 154 145 143 145 137 127 126 118 113 110 109 106 88 84
139 122 180 250 256 177 163 167 150 153 197 177 193 270 269 219 211 194 196 190 180 174 171 168 163 158 160 161 161 161 156 152 152 143 133 128 121 114 110 107 103 97 93 83
140 118 93 353 346 1 168 169 158 133 126 162 188 265 304 174 195 191 182 178 169 161 157 155 157 166 170 168 167 166 162 159 147 136 132 127 126 127 130 128 115 101 98 87
120 121 158 189 216 194 199 182 162 141 160 201 222 250 285 278 240 213 185 172 165 163 163 163 169 173 173 171 168 165 161 156 147 140 140 141 148 148 145 131 117 110 106 99
117 151 200 225 219 176 202 195 179 187 192 196 227 231 249 239 217 203 178 163 159 167 169 171 174 176 172 168 166 163 159 156 151 145 149 158 151 135 125 118 113 106 100 101
118 148 153 283 236 201 239 236 206 210 208 219 238 258 250 230 181 173 172 169 174 179 181 176 172 172 176 176 173 166 164 162 152 153 158 152 138 128 126 125 118 107 100 94
142 135 130 250 305 35 273 234 205 202 202 189 214 237 220 197 196 194 188 184 186 183 178 177 178 180 181 179 172 170 167 155 152 154 153 151 145 141 143 136 122 122 122 107
141 128 131 150 84 238 248 240 190 197 227 211 223 234 202 206 204 195 186 189 190 183 177 178 176 174 171 163 157 149 145 149 152 153 157 157 152 150 144 135 136 140 129 123
143 136 128 136 188 272 289 256 180 182 254 221 218 229 194 146 83 290 209 190 190 184 177 175 173 166 156 155 152 143 143 146 150 161 167 166 159 153 149 149 151 150 135 128
80 107 121 137 166 232 248 249 184 130 276 246 194 193 165 130 144 249 211 178 167 156 153 152 150 144 148 150 145 144 151 155 168 173 170 160 156 156 159 161 157 147 142 143
112 103 138 162 202 253 254 251 129 164 240 231 179 175 165 177 197 204 160 158 153 147 146 146 145 148 155 150 146 150 156 173 174 157 147 144 150 154 154 150 146 139 132 119
169 161 176 154 188 249 246 145 178 213 234 185 181 176 172 179 147 135 143 144 140 133 133 141 144 146 145 150 151 155 172 169 145 140 139 143 145 148 143 138 133 130 129 123
190 185 179 185 210 238 221 213 237 201 199 203 182 177 160 152 154 143 141 143 142 140 142 142 144 141 144 157 160 166 170 148 140 138 142 144 139 134 138 143 141 132 132 137
243 158 149 230 263 262 261 257 259 215 208 205 180 163 154 156 155 145 142 145 144 142 145 140 137 141 151 158 163 164 151 147 142 145 147 144 140 135 133 137 144 146 156 158
203 159 166 238 264 296 292 248 229 217 178 153 148 153 155 146 150 153 151 154 153 144 144 143 147 152 158 152 149 144 148 147 144 146 148 146 146 149 147 145 155 165 181 179
198 179 179 219 218 198 241 249 196 169 180 171 149 134 137 146 151 147 149 152 149 145 142 140 143 146 150 148 146 146 150 150 146 146 151 154 152 148 147 143 107 72 143 167